DELTA 1 DEB, 10211

Orbit data source: Space-Track

DELTA 1 DEB, 10211 is space debris in LEO originally from a launch on Thu, 14 Jul 1977 UTC launched from the Air Force Eastern Test Range (AFETR). Debris objects in space refer to the collection of defunct objects orbiting the Earth. Examples of debris include non-operational satellites, rocket bodies, and fragments generated from explosions, collisions, or faulty payload assembly.

Loading next visibility...
Identifier
10211, 1977-065AQ
Orbit
LEO
Country
Flag of USUS
Related business
Manufacturer
Unknown
Mission
Spacecraft
Bus & Motor
Unknown
Mass
Unknown
Launch date (UTC)
1977-07-14 (48 years ago)
Launch vehicle
Unknown
Launch site
Air Force Eastern Test Range (AFETR)
Object type
Payload
Rocket body
Debris
Shape & HBR
Unknown shape, 0.1 m
Radar Cross Section
Medium (>0.1 m² and <1 m²)

Expand to show TLE details & history
Last TLE update: 2 days ago

TLE from 2 days ago
0 DELTA 1 DEB
1 10211U 77065AQ  25302.82964873  .00000317  00000-0  49572-3 0  9990
2 10211  29.4838 195.4865 0670584 217.6424 137.5318 12.71377680 81598
Epoch: 2025-10-29T19:54Z
TLE epoch observation values (Epoch: 2025-10-29T19:54:41.650Z)
Latitude
0.00001°
Longitude
-141.5842°
Altitude
1,773.111 km
Speed
6.814 km/s
True Right ascension
13h 01m 56s
True Declination
0° 00' 00"
Sunlit
Object was in daylight at epoch
Visualization orbit readout
Latitude
Unknown
Longitude
Unknown
Altitude
Unknown
Speed
Unknown
Apparent Right ascension
Unknown
Apparent Declination
Unknown
Sunlit
N/A
Visualization observer readout
Local Sidereal Time
02:40:03
Azimuth
Unknown
Elevation
Unknown
Doppler factor
Unknown
Orbital elements
Apogee altitude
1,900.226 km
Perigee altitude
859.732 km
Semi-major axis
7,758.116 km
Eccentricity
0.06706
Inclination
29.4838°
RAAN
195.4865°
Arg. of periapsis
217.6424°
True anomaly
142.41149°
Mean anomaly
137.5318°
Eccentric anomaly
140.00142°
Mean motion
3.17621 °/min
Orbital period
113.34 mins
BSTAR
0.00049572
Loading maneuver chart data...
Computing Atmospheric mass density...
Loading historical data...
Loading historical data...
Loading historical data...
Loading historical data...
Loading historical data...
Loading historical data...
Loading historical data...

Documentation

Showing up to 5 results
|